GFSNIL_850_spd_129.txt.gz
Wind_Speed
45 39 36 36 34 28 30 32 28 31 32 33 34 34 33 31 32 33 37 39 40 41
31 31 30 29 29 25 21 25 24 28 32 32 34 34 33 32 32 32 34 37 40 41
29 28 26 27 26 25 23 23 23 24 27 28 29 31 32 32 33 32 33 35 37 39
24 26 27 26 26 26 24 24 25 22 22 25 24 21 25 25 27 30 34 35 38 40
13 17 18 23 23 25 24 23 24 22 21 21 21 22 25 27 27 29 32 34 36 40
10 9 17 21 24 24 25 25 26 23 23 22 22 23 25 28 28 30 30 32 33 35
7 11 12 16 16 19 22 24 26 25 22 19 20 23 27 30 30 30 32 35 38 38
6 9 11 15 18 19 26 26 20 20 19 18 23 24 20 23 24 26 28 31 36 41
4 6 13 12 16 22 26 20 19 18 18 20 23 19 19 19 21 23 21 21 22 24
3 1 4 11 14 16 16 16 17 18 16 15 15 17 18 18 18 16 15 16 18 18
6 4 2 4 8 15 16 19 19 18 18 14 13 14 15 14 14 14 14 15 13 13
8 6 5 5 6 9 16 20 20 22 18 19 15 15 16 13 15 16 17 15 14 13
10 9 7 7 8 8 10 11 16 26 25 21 19 18 17 16 14 17 18 18 15 12
12 11 9 9 9 9 9 10 13 13 18 21 22 22 18 16 15 16 18 18 17 14

GFSNIL_850_spd_132.txt.gz
Wind_Speed
44 45 48 51 49 50 43 36 36 36 37 32 31 34 34 34 33 34 33 35 36 34
36 41 46 44 41 43 36 27 27 33 33 31 30 31 32 33 33 31 31 31 33 34
27 28 27 32 32 34 28 22 20 25 31 30 29 30 32 33 32 32 30 30 29 32
17 15 18 23 29 29 26 24 25 28 29 26 27 27 28 31 30 31 29 27 31 30
17 12 17 28 26 30 27 26 27 27 27 25 23 25 26 25 28 26 25 28 29 31
21 22 26 27 32 30 25 22 24 25 27 23 20 19 19 21 21 24 27 27 27 29
19 20 24 27 23 21 20 19 21 22 27 25 22 21 18 22 24 25 29 28 29 29
8 8 11 12 11 11 11 13 17 22 26 24 22 22 20 22 23 26 30 30 30 32
8 6 7 9 13 15 13 14 16 17 21 20 22 21 20 19 19 22 23 26 28 29
11 8 5 6 6 10 16 17 19 18 19 20 19 18 19 18 20 20 22 23 22 20
12 9 8 4 2 4 10 10 14 19 17 17 16 16 17 18 16 18 19 19 17 16
15 11 9 8 6 5 3 7 9 19 20 19 19 18 19 18 17 17 17 18 16 15
17 15 13 11 8 6 4 5 8 12 15 20 24 21 21 19 19 18 18 19 18 17
18 17 16 14 12 10 7 5 5 8 11 15 22 25 23 21 22 20 18 18 19 18

GFSNIL_850_spd_135.txt.gz
Wind_Speed
32 42 47 43 46 49 49 50 49 46 44 42 38 34 33 33 34 33 31 32 30 31
26 35 43 40 42 47 46 45 50 45 44 41 36 34 31 30 33 35 35 36 34 33
24 32 36 34 39 39 38 35 40 43 43 39 33 33 30 30 31 35 35 34 32 32
16 24 29 31 33 35 35 33 36 36 34 35 31 30 30 31 30 32 33 32 31 30
14 15 19 19 22 19 19 17 23 28 24 27 28 29 29 30 30 31 32 31 31 29
16 9 7 8 9 9 13 14 13 20 23 29 30 28 26 27 27 26 26 27 26 26
11 11 15 12 13 14 11 13 17 30 31 34 34 30 27 22 23 22 21 21 22 24
15 13 15 18 20 19 17 23 33 31 30 29 32 29 28 25 23 22 24 24 24 28
17 12 8 7 7 11 17 24 23 23 22 24 29 29 26 21 21 21 22 24 26 29
16 13 11 7 4 7 13 14 14 13 14 20 23 24 22 21 20 20 20 21 22 24
17 15 12 11 8 6 8 10 14 16 17 17 19 18 16 19 20 21 19 20 22 24
17 14 12 9 8 7 4 5 9 12 17 15 16 17 18 18 19 19 18 16 18 20
19 17 14 13 10 7 5 2 2 5 10 17 18 19 20 19 21 21 17 18 17 16
19 18 16 14 11 10 6 3 2 2 4 8 13 18 21 23 23 21 19 18 18 19

GFSNIL_850_spd_138.txt.gz
Wind_Speed
40 35 33 29 39 33 40 53 49 48 48 46 45 45 45 43 40 38 35 31 31 30
34 31 30 29 31 31 34 40 43 46 49 48 46 44 44 43 40 37 36 34 34 31
24 25 25 29 30 32 32 31 35 39 44 49 46 44 43 42 40 37 35 36 36 34
18 21 22 23 26 28 29 30 31 34 35 41 45 43 41 40 42 37 33 33 37 37
15 18 19 19 21 23 24 25 29 29 31 35 43 40 37 38 40 36 31 31 35 36
13 12 12 14 17 20 25 29 27 30 30 33 34 32 29 32 34 33 32 31 32 32
15 13 8 6 7 14 14 17 17 18 24 23 19 20 23 27 33 31 30 29 29 31
9 5 3 2 4 4 12 13 14 15 17 22 26 25 24 32 31 30 28 25 24 25
4 1 4 6 7 11 14 11 14 16 19 17 19 23 27 32 33 30 28 25 25 24
18 11 12 6 10 9 13 10 16 15 15 18 25 26 31 40 37 33 27 23 21 22
20 16 14 10 8 8 9 10 10 11 15 17 19 23 25 22 30 29 21 18 17 17
22 18 14 11 11 9 7 7 10 10 12 13 14 15 17 21 22 21 16 17 17 16
20 18 18 15 12 9 9 7 8 8 8 9 11 16 16 14 17 17 16 17 17 16
17 16 15 15 12 11 9 7 6 6 4 2 6 11 14 16 15 17 18 18 19 18

GFSNIL_850_spd_141.txt.gz
Wind_Speed
41 45 40 38 43 50 48 20 36 43 48 50 52 50 47 45 43 42 40 36 33 27
36 40 38 42 43 46 53 55 48 47 49 49 47 46 46 47 46 45 41 40 36 33
32 34 40 40 45 39 48 55 53 48 50 49 46 42 42 43 42 42 42 38 37 36
17 29 37 34 33 49 48 46 39 38 41 42 41 43 42 43 40 38 37 36 36 34
7 12 23 27 25 12 30 27 26 26 29 29 32 40 44 43 39 38 37 38 36 34
17 6 4 7 15 17 15 15 21 26 25 20 30 36 40 42 40 41 37 37 35 32
19 15 13 10 2 3 11 15 21 23 19 19 28 35 37 40 40 41 34 32 34 28
19 15 11 7 5 7 6 10 9 10 15 24 30 32 35 38 34 33 32 30 28 29
20 17 13 7 3 3 1 3 6 7 7 13 19 18 20 24 27 30 29 27 22 25
23 22 17 8 2 5 5 7 10 10 13 18 19 21 22 20 20 24 30 32 31 33
21 25 19 12 4 7 3 6 7 14 17 13 18 20 23 19 20 21 26 28 23 26
20 23 22 18 11 11 6 5 8 11 13 11 14 14 19 24 23 24 35 28 22 24
22 20 20 18 16 14 15 11 8 5 5 17 6 12 16 20 22 26 16 15 22 19
23 22 19 17 16 14 13 10 10 10 7 7 3 2 14 15 14 18 23 20 19 20

GFSNIL_850_spd_144.txt.gz
Wind_Speed
27 29 41 44 49 56 45 56 61 56 50 56 52 52 51 53 49 44 44 40 35 31
23 20 30 38 40 43 47 49 46 70 24 40 42 42 43 48 50 46 44 43 40 34
21 22 23 31 40 44 41 27 39 41 44 30 43 34 40 45 43 43 44 44 40 40
22 14 17 22 30 33 38 39 37 30 52 51 42 38 40 46 45 40 42 41 43 41
27 21 13 12 24 22 33 37 31 40 42 54 45 40 45 46 45 43 42 43 41 43
35 28 23 21 10 15 18 23 33 36 46 54 38 37 42 52 47 44 44 41 42 41
41 35 26 20 23 14 4 13 21 45 39 35 37 37 42 45 43 46 44 41 40 41
39 35 24 18 18 22 12 6 12 19 60 50 43 29 35 36 41 45 40 40 41 41
38 34 28 23 22 18 13 10 4 12 12 12 32 32 34 32 37 36 39 40 41 34
36 35 30 25 21 19 15 7 3 5 3 8 12 15 17 28 33 33 36 37 32 32
35 33 30 26 25 24 17 10 6 1 2 3 10 13 16 16 11 13 18 22 24 26
37 32 28 25 23 25 21 15 14 9 7 3 3 8 9 12 19 19 20 19 19 23
34 31 29 24 19 19 20 20 19 14 11 8 3 6 12 10 16 22 17 19 26 27
31 32 29 25 20 19 19 18 17 16 14 13 11 5 6 7 13 16 23 18 12 15

GFSNIL_850_spd_147.txt.gz
Wind_Speed
30 32 31 35 38 42 46 44 32 36 39 46 47 66 56 57 65 59 55 52 47 44
31 29 28 29 25 26 29 31 34 34 32 41 41 65 33 60 64 61 57 54 48 44
34 29 23 22 21 19 14 20 31 29 31 42 48 52 67 31 61 65 58 54 50 45
38 34 25 20 18 17 21 26 32 36 32 33 48 48 63 58 43 64 55 52 49 47
41 37 32 24 18 10 8 14 24 31 36 37 42 41 46 57 32 58 52 49 46 50
41 37 33 33 25 27 6 2 7 16 25 32 39 43 62 52 44 48 44 38 46 47
42 39 33 31 28 13 19 8 7 7 25 35 37 33 40 44 41 35 37 36 41 41
38 38 34 31 30 26 20 7 3 7 21 28 29 24 36 43 36 36 41 43 43 42
40 37 36 33 31 27 25 19 10 9 18 26 9 24 13 33 34 37 36 39 36 36
41 38 36 33 31 28 25 24 18 12 11 16 17 13 13 13 26 32 32 34 31 37
40 37 33 31 30 30 26 22 23 21 13 8 8 15 13 16 9 34 46 35 31 32
38 39 34 31 30 27 27 27 23 21 17 12 10 1 9 14 21 11 11 24 28 29
32 36 34 30 26 23 22 21 20 21 20 16 9 6 9 8 9 16 16 16 18 15
28 31 33 30 25 21 21 20 21 19 20 21 20 13 2 9 8 10 12 9 11 21